EDW894T LSZH-LEIB

Flight info

Callsign EDW894T
Flight time 1h 41m
Altitude 37000
Route N0439F370 VEBIT T50 ROTOS Z669 ULMES DCT VADAR DCT GEVEA DCT INCUS DCT BALSI DCT RETNO DCT TUPOX DCT MTG DCT DIVKO DCT VATIR DCT PIVUS DCT SULID DCT DIMIB DCT POS
Aircraft A320/M-SDE2E3FGHIJ1RWXY/LB1

Departure

Time 2026-04-26 16:43
Airport Zürich Airport (LSZH)

Arrival

Time 2026-04-26 18:24
Airport Ibiza Airport (LEIB)
Time Latitude Longitude Altitude Speed Heading
2026-04-26 16:24 47.44834 8.55867 1397 ft 0 kts 245°
2026-04-26 16:34 47.44830 8.55857 1403 ft 3 kts 245°
2026-04-26 16:35 47.44820 8.55824 1400 ft 4 kts 245°
2026-04-26 16:35 47.44823 8.55778 1395 ft 7 kts 299°
2026-04-26 16:35 47.44873 8.55730 1404 ft 10 kts 336°
2026-04-26 16:35 47.44949 8.55678 1402 ft 13 kts 336°
2026-04-26 16:36 47.45038 8.55620 1401 ft 15 kts 335°
2026-04-26 16:36 47.45142 8.55549 1407 ft 18 kts 335°
2026-04-26 16:36 47.45264 8.55463 1405 ft 15 kts 334°
2026-04-26 16:36 47.45339 8.55412 1406 ft 11 kts 335°
2026-04-26 16:37 47.45403 8.55373 1407 ft 9 kts 349°
2026-04-26 16:37 47.45455 8.55401 1406 ft 7 kts 27°
2026-04-26 16:37 47.45508 8.55441 1409 ft 10 kts 31°
2026-04-26 16:37 47.45525 8.55503 1411 ft 11 kts 90°
2026-04-26 16:38 47.45514 8.55670 1409 ft 14 kts 96°
2026-04-26 16:38 47.45502 8.55838 1414 ft 18 kts 96°
2026-04-26 16:38 47.45489 8.56025 1410 ft 18 kts 96°
2026-04-26 16:38 47.45477 8.56189 1407 ft 11 kts 94°
2026-04-26 16:39 47.45515 8.56282 1412 ft 10 kts 51°
2026-04-26 16:39 47.45554 8.56353 1413 ft 9 kts 51°
2026-04-26 16:39 47.45593 8.56435 1414 ft 10 kts 71°
2026-04-26 16:39 47.45590 8.56543 1416 ft 12 kts 96°
2026-04-26 16:40 47.45579 8.56691 1418 ft 17 kts 96°
2026-04-26 16:40 47.45567 8.56857 1420 ft 15 kts 96°
2026-04-26 16:40 47.45567 8.56983 1421 ft 12 kts 66°
2026-04-26 16:40 47.45626 8.57022 1425 ft 7 kts
2026-04-26 16:41 47.45661 8.57007 1425 ft 5 kts 288°
2026-04-26 16:41 47.45665 8.56975 1424 ft 0 kts 277°
2026-04-26 16:41 47.45665 8.56974 1424 ft 0 kts 277°
2026-04-26 16:42 47.45665 8.56971 1424 ft 0 kts 277°
2026-04-26 16:42 47.45665 8.56970 1424 ft 0 kts 277°
2026-04-26 16:42 47.45669 8.56921 1423 ft 18 kts 277°
2026-04-26 16:43 47.45713 8.56299 1414 ft 101 kts 276°
2026-04-26 16:43 47.45857 8.54347 1439 ft 177 kts 278°
2026-04-26 16:43 47.45955 8.53115 1856 ft 180 kts 277°
2026-04-26 16:43 47.46089 8.51283 2727 ft 179 kts 279°
2026-04-26 16:44 47.46219 8.49448 3506 ft 178 kts 279°
2026-04-26 16:44 47.46203 8.47611 4052 ft 184 kts 251°
2026-04-26 16:44 47.45442 8.46162 4592 ft 182 kts 210°
2026-04-26 16:44 47.44320 8.45170 4966 ft 199 kts 215°
2026-04-26 16:45 47.43274 8.43674 5203 ft 222 kts 234°
2026-04-26 16:45 47.42328 8.41718 5465 ft 246 kts 234°
2026-04-26 16:45 47.41297 8.39551 5838 ft 269 kts 235°
2026-04-26 16:45 47.40201 8.37237 6536 ft 279 kts 235°
2026-04-26 16:46 47.39093 8.34875 7380 ft 280 kts 238°
2026-04-26 16:46 47.38159 8.32342 8271 ft 281 kts 243°
2026-04-26 16:46 47.37252 8.29775 9112 ft 284 kts 243°
2026-04-26 16:46 47.36332 8.27186 10017 ft 285 kts 243°
2026-04-26 16:47 47.35399 8.24566 10622 ft 296 kts 243°
2026-04-26 16:47 47.34403 8.21769 10858 ft 319 kts 243°
2026-04-26 16:47 47.33353 8.18815 11344 ft 331 kts 243°
2026-04-26 16:47 47.32286 8.15818 12061 ft 335 kts 243°
2026-04-26 16:48 47.31192 8.12759 12768 ft 339 kts 243°
2026-04-26 16:48 47.30087 8.09667 13475 ft 343 kts 243°
2026-04-26 16:48 47.28977 8.06557 14186 ft 345 kts 244°
2026-04-26 16:48 47.27858 8.03412 14833 ft 348 kts 244°
2026-04-26 16:49 47.26756 8.00217 15464 ft 351 kts 248°
2026-04-26 16:49 47.25825 7.96878 16076 ft 354 kts 249°
2026-04-26 16:49 47.24886 7.93504 16703 ft 357 kts 249°
2026-04-26 16:49 47.23948 7.90156 17309 ft 361 kts 249°
2026-04-26 16:50 47.22985 7.86731 17923 ft 364 kts 249°
2026-04-26 16:50 47.22014 7.83281 18534 ft 367 kts 249°
2026-04-26 16:50 47.21035 7.79800 19055 ft 369 kts 249°
2026-04-26 16:50 47.20051 7.76298 19607 ft 372 kts 249°
2026-04-26 16:51 47.18961 7.72828 20136 ft 377 kts 242°
2026-04-26 16:51 47.17456 7.69640 20667 ft 382 kts 234°
2026-04-26 16:51 47.15798 7.66571 21202 ft 385 kts 234°
2026-04-26 16:51 47.14127 7.63485 21732 ft 388 kts 234°
2026-04-26 16:52 47.12433 7.60358 22242 ft 392 kts 234°
2026-04-26 16:52 47.11306 7.58275 22572 ft 394 kts 234°
2026-04-26 16:52 47.09012 7.54039 23234 ft 398 kts 234°
2026-04-26 16:52 47.07283 7.50843 23714 ft 401 kts 234°
2026-04-26 16:53 47.05539 7.47625 24122 ft 404 kts 234°
2026-04-26 16:53 47.03788 7.44399 24530 ft 407 kts 234°
2026-04-26 16:53 47.02040 7.41185 24910 ft 409 kts 234°
2026-04-26 16:53 47.00236 7.37884 25261 ft 412 kts 234°
2026-04-26 16:54 46.98455 7.34634 25584 ft 416 kts 234°
2026-04-26 16:54 46.96612 7.31277 25938 ft 419 kts 234°
2026-04-26 16:54 46.94780 7.27944 26294 ft 421 kts 233°
2026-04-26 16:54 46.92941 7.24591 26615 ft 424 kts 233°
2026-04-26 16:55 46.91090 7.21213 26957 ft 426 kts 233°
2026-04-26 16:55 46.89258 7.17869 27304 ft 429 kts 233°
2026-04-26 16:55 46.87389 7.14461 27654 ft 431 kts 233°
2026-04-26 16:55 46.85508 7.11035 27995 ft 433 kts 233°
2026-04-26 16:56 46.81709 7.04151 28669 ft 437 kts 233°
2026-04-26 16:56 46.79795 7.00692 28992 ft 439 kts 233°
2026-04-26 16:56 46.77871 6.97218 29299 ft 441 kts 233°
2026-04-26 16:57 46.75937 6.93725 29596 ft 443 kts 233°
2026-04-26 16:57 46.73996 6.90222 29876 ft 446 kts 233°
2026-04-26 16:57 46.70072 6.83150 30347 ft 451 kts 233°
2026-04-26 16:58 46.68092 6.79598 30581 ft 452 kts 233°
2026-04-26 16:58 46.66778 6.77241 30738 ft 453 kts 233°
2026-04-26 16:58 46.61932 6.69109 31279 ft 456 kts 229°
2026-04-26 16:59 46.59752 6.65775 31608 ft 455 kts 228°
2026-04-26 16:59 46.55388 6.59248 32249 ft 452 kts 228°
2026-04-26 17:00 46.51055 6.52666 32897 ft 449 kts 229°
2026-04-26 17:00 46.46795 6.46072 33526 ft 446 kts 229°
2026-04-26 17:00 46.44678 6.42788 33802 ft 446 kts 229°
2026-04-26 17:01 46.42551 6.39493 34005 ft 448 kts 229°
2026-04-26 17:01 46.40414 6.36195 34234 ft 449 kts 229°
2026-04-26 17:01 46.38277 6.32908 34477 ft 448 kts 229°
2026-04-26 17:01 46.36140 6.29631 34758 ft 446 kts 229°
2026-04-26 17:02 46.34008 6.26373 35023 ft 446 kts 229°
2026-04-26 17:02 46.31877 6.23125 35120 ft 444 kts 229°
2026-04-26 17:02 46.27491 6.16913 35139 ft 442 kts 219°
2026-04-26 17:03 46.22083 6.12810 35138 ft 447 kts 199°
2026-04-26 17:03 46.15966 6.11134 35139 ft 449 kts 190°
2026-04-26 17:04 46.09786 6.09768 35137 ft 449 kts 190°
2026-04-26 17:04 46.03612 6.08393 35138 ft 449 kts 190°
2026-04-26 17:05 45.97440 6.07015 35141 ft 448 kts 190°
2026-04-26 17:05 45.91273 6.05649 35147 ft 448 kts 190°
2026-04-26 17:06 45.85121 6.04297 35150 ft 447 kts 190°
2026-04-26 17:06 45.79015 6.02955 35141 ft 446 kts 191°
2026-04-26 17:07 45.72885 6.01597 35126 ft 445 kts 191°
2026-04-26 17:07 45.66771 6.00248 35125 ft 444 kts 191°
2026-04-26 17:08 45.60663 5.98900 35121 ft 444 kts 191°
2026-04-26 17:08 45.54569 5.97573 35130 ft 442 kts 191°
2026-04-26 17:09 45.49516 5.96472 35134 ft 442 kts 191°
2026-04-26 17:09 45.42469 5.94649 35131 ft 439 kts 194°
2026-04-26 17:10 45.36524 5.92684 35133 ft 438 kts 195°
2026-04-26 17:10 45.30594 5.90712 35138 ft 437 kts 195°
2026-04-26 17:11 45.24657 5.88840 35142 ft 437 kts 194°
2026-04-26 17:11 45.18756 5.87029 35145 ft 436 kts 194°
2026-04-26 17:12 45.09871 5.84299 35146 ft 435 kts 194°
2026-04-26 17:13 45.01008 5.81548 35129 ft 434 kts 194°
2026-04-26 17:14 44.92153 5.78829 35127 ft 434 kts 194°
2026-04-26 17:14 44.83315 5.76120 35119 ft 433 kts 194°
2026-04-26 17:15 44.74465 5.73418 35116 ft 434 kts 194°
2026-04-26 17:16 44.68598 5.71627 35109 ft 434 kts 194°
2026-04-26 17:16 44.62690 5.69833 35103 ft 435 kts 194°
2026-04-26 17:17 44.56761 5.68026 35101 ft 436 kts 194°
2026-04-26 17:17 44.50820 5.66219 35099 ft 437 kts 193°
2026-04-26 17:18 44.44871 5.64421 35107 ft 438 kts 194°
2026-04-26 17:18 44.38920 5.62609 35108 ft 437 kts 197°
2026-04-26 17:19 44.30402 5.58174 35112 ft 435 kts 203°
2026-04-26 17:19 44.24766 5.55091 35114 ft 435 kts 203°
2026-04-26 17:20 44.20081 5.52540 35115 ft 435 kts 203°
2026-04-26 17:20 44.13538 5.48985 35117 ft 435 kts 203°
2026-04-26 17:21 44.07910 5.45922 35106 ft 434 kts 203°
2026-04-26 17:21 44.02288 5.42868 35110 ft 433 kts 203°
2026-04-26 17:22 43.96676 5.39824 35112 ft 433 kts 203°
2026-04-26 17:22 43.91067 5.36774 35107 ft 433 kts 203°
2026-04-26 17:23 43.85462 5.33740 35107 ft 432 kts 203°
2026-04-26 17:23 43.79860 5.30728 35100 ft 432 kts 203°
2026-04-26 17:24 43.74288 5.27731 35097 ft 433 kts 203°
2026-04-26 17:24 43.68675 5.24714 35090 ft 432 kts 204°
2026-04-26 17:25 43.63067 5.21710 35096 ft 432 kts 204°
2026-04-26 17:25 43.57463 5.18723 35097 ft 432 kts 204°
2026-04-26 17:26 43.51870 5.15732 35098 ft 431 kts 204°
2026-04-26 17:26 43.46278 5.12742 35096 ft 431 kts 204°
2026-04-26 17:27 43.40683 5.09763 35098 ft 431 kts 205°
2026-04-26 17:27 43.35555 5.05780 35100 ft 426 kts 217°
2026-04-26 17:28 43.30678 5.01169 35091 ft 426 kts 217°
2026-04-26 17:28 43.25792 4.96580 35106 ft 425 kts 217°
2026-04-26 17:29 43.21737 4.92775 35102 ft 425 kts 217°
2026-04-26 17:29 43.16018 4.87418 35106 ft 426 kts 217°
2026-04-26 17:30 43.11118 4.82837 35097 ft 427 kts 217°
2026-04-26 17:30 43.06215 4.78268 35115 ft 426 kts 217°
2026-04-26 17:31 43.01079 4.74254 35115 ft 428 kts 212°
2026-04-26 17:31 42.95871 4.70305 35117 ft 428 kts 212°
2026-04-26 17:32 42.90667 4.66361 35118 ft 428 kts 212°
2026-04-26 17:32 42.85461 4.62420 35122 ft 428 kts 212°
2026-04-26 17:33 42.80255 4.58496 35125 ft 428 kts 212°
2026-04-26 17:34 42.72436 4.52608 35112 ft 428 kts 212°
2026-04-26 17:34 42.67211 4.48690 35112 ft 429 kts 212°
2026-04-26 17:35 42.62015 4.44805 35117 ft 429 kts 212°
2026-04-26 17:35 42.56777 4.40890 35117 ft 430 kts 212°
2026-04-26 17:36 42.51546 4.36978 35105 ft 430 kts 212°
2026-04-26 17:36 42.46303 4.33069 35115 ft 430 kts 212°
2026-04-26 17:37 42.41060 4.29176 35123 ft 430 kts 212°
2026-04-26 17:37 42.35818 4.25288 35128 ft 430 kts 212°
2026-04-26 17:38 42.27954 4.19468 35118 ft 430 kts 212°
2026-04-26 17:38 42.22701 4.15596 35113 ft 430 kts 211°
2026-04-26 17:39 42.17479 4.11756 35117 ft 430 kts 211°
2026-04-26 17:39 42.12213 4.07888 35108 ft 431 kts 211°
2026-04-26 17:40 42.08697 4.05307 35110 ft 431 kts 211°
2026-04-26 17:40 42.01693 4.00173 35117 ft 431 kts 211°
2026-04-26 17:41 41.96440 3.96318 35117 ft 430 kts 211°
2026-04-26 17:41 41.91200 3.92507 35105 ft 431 kts 210°
2026-04-26 17:42 41.85851 3.88857 35116 ft 432 kts 208°
2026-04-26 17:42 41.80458 3.85304 35114 ft 432 kts 208°
2026-04-26 17:43 41.75072 3.81730 35128 ft 432 kts 209°
2026-04-26 17:43 41.69688 3.78121 35110 ft 433 kts 208°
2026-04-26 17:44 41.65215 3.75121 35115 ft 433 kts 208°
2026-04-26 17:44 41.59815 3.71526 35120 ft 434 kts 208°
2026-04-26 17:45 41.54412 3.67931 35125 ft 434 kts 208°
2026-04-26 17:45 41.49011 3.64341 35119 ft 434 kts 208°
2026-04-26 17:46 41.43607 3.60748 35117 ft 434 kts 208°
2026-04-26 17:46 41.38205 3.57172 35126 ft 434 kts 208°
2026-04-26 17:47 41.33718 3.54204 35131 ft 434 kts 208°
2026-04-26 17:47 41.27439 3.50053 35127 ft 433 kts 208°
2026-04-26 17:48 41.22034 3.46490 35127 ft 434 kts 208°
2026-04-26 17:48 41.16416 3.43587 35127 ft 436 kts 193°
2026-04-26 17:49 41.10459 3.42027 35121 ft 436 kts 193°
2026-04-26 17:49 41.04502 3.40461 35121 ft 436 kts 192°
2026-04-26 17:50 40.98548 3.38888 35130 ft 436 kts 192°
2026-04-26 17:50 40.92592 3.37312 35122 ft 436 kts 192°
2026-04-26 17:51 40.86676 3.35758 35121 ft 436 kts 192°
2026-04-26 17:51 40.80719 3.34196 35126 ft 436 kts 192°
2026-04-26 17:52 40.74761 3.32639 35122 ft 437 kts 192°
2026-04-26 17:52 40.68805 3.31090 35122 ft 437 kts 192°
2026-04-26 17:53 40.62839 3.29539 35125 ft 437 kts 192°
2026-04-26 17:54 40.53898 3.27205 35121 ft 437 kts 192°
2026-04-26 17:54 40.47976 3.25673 35122 ft 437 kts 192°
2026-04-26 17:55 40.42013 3.24129 35127 ft 437 kts 192°
2026-04-26 17:55 40.36055 3.22587 35128 ft 436 kts 192°
2026-04-26 17:56 40.30096 3.21052 35133 ft 436 kts 192°
2026-04-26 17:57 40.18192 3.17976 35129 ft 436 kts 192°
2026-04-26 17:57 40.12235 3.16452 35126 ft 436 kts 191°
2026-04-26 17:58 40.00351 3.13395 35127 ft 437 kts 192°
2026-04-26 17:59 39.91536 3.10476 35121 ft 436 kts 205°
2026-04-26 17:59 39.86217 3.06673 35120 ft 436 kts 210°
2026-04-26 18:00 39.80910 3.02820 35119 ft 437 kts 209°
2026-04-26 18:00 39.75595 2.98985 35127 ft 437 kts 208°
2026-04-26 18:01 39.70284 2.95142 35134 ft 437 kts 209°
2026-04-26 18:01 39.64973 2.91297 35130 ft 437 kts 209°
2026-04-26 18:02 39.62312 2.89374 34884 ft 437 kts 208°
2026-04-26 18:02 39.60554 2.88104 34726 ft 437 kts 208°
2026-04-26 18:02 39.57040 2.85566 34406 ft 437 kts 208°
2026-04-26 18:02 39.54384 2.83652 34168 ft 436 kts 208°
2026-04-26 18:03 39.51741 2.81753 33704 ft 433 kts 208°
2026-04-26 18:03 39.49124 2.79871 33160 ft 428 kts 208°
2026-04-26 18:03 39.46532 2.77999 32610 ft 425 kts 209°
2026-04-26 18:03 39.44104 2.75884 32059 ft 422 kts 219°
2026-04-26 18:04 39.41956 2.73292 31529 ft 419 kts 228°
2026-04-26 18:04 39.40103 2.70398 30999 ft 417 kts 231°
2026-04-26 18:04 39.38283 2.67496 30476 ft 414 kts 231°
2026-04-26 18:05 39.34668 2.61764 29393 ft 408 kts 230°
2026-04-26 18:05 39.32882 2.58936 28887 ft 404 kts 230°
2026-04-26 18:05 39.31115 2.56135 28387 ft 401 kts 230°
2026-04-26 18:05 39.29359 2.53355 27906 ft 397 kts 230°
2026-04-26 18:06 39.27619 2.50603 27430 ft 394 kts 230°
2026-04-26 18:06 39.25912 2.47908 26976 ft 392 kts 230°
2026-04-26 18:06 39.24192 2.45199 26517 ft 389 kts 230°
2026-04-26 18:06 39.22481 2.42511 26066 ft 386 kts 230°
2026-04-26 18:07 39.20781 2.39837 25620 ft 384 kts 230°
2026-04-26 18:07 39.19097 2.37187 25172 ft 381 kts 230°
2026-04-26 18:07 39.17420 2.34546 24726 ft 379 kts 230°
2026-04-26 18:07 39.16317 2.32809 24430 ft 378 kts 230°
2026-04-26 18:08 39.14096 2.29313 23822 ft 376 kts 230°
2026-04-26 18:08 39.12440 2.26714 23315 ft 375 kts 230°
2026-04-26 18:08 39.10792 2.24131 22852 ft 372 kts 229°
2026-04-26 18:08 39.09154 2.21571 22384 ft 369 kts 229°
2026-04-26 18:09 39.07528 2.19029 21921 ft 367 kts 229°
2026-04-26 18:09 39.05908 2.16498 21464 ft 365 kts 229°
2026-04-26 18:09 39.04298 2.13983 20998 ft 364 kts 229°
2026-04-26 18:09 39.02694 2.11475 20545 ft 362 kts 229°
2026-04-26 18:10 39.01093 2.08976 20092 ft 361 kts 229°
2026-04-26 18:10 38.99497 2.06488 19629 ft 361 kts 229°
2026-04-26 18:10 38.97901 2.04007 19170 ft 360 kts 229°
2026-04-26 18:10 38.96304 2.01530 18717 ft 360 kts 229°
2026-04-26 18:11 38.94729 1.99088 18249 ft 359 kts 229°
2026-04-26 18:11 38.93139 1.96619 17781 ft 358 kts 229°
2026-04-26 18:11 38.91609 1.94107 17325 ft 357 kts 236°
2026-04-26 18:11 38.90471 1.91292 16895 ft 356 kts 248°
2026-04-26 18:12 38.89775 1.88248 16462 ft 355 kts 255°
2026-04-26 18:12 38.89163 1.85192 16027 ft 354 kts 255°
2026-04-26 18:12 38.88543 1.82140 15599 ft 352 kts 255°
2026-04-26 18:12 38.87918 1.79105 15171 ft 351 kts 255°
2026-04-26 18:13 38.87292 1.76081 14740 ft 351 kts 255°
2026-04-26 18:13 38.86663 1.73057 14302 ft 350 kts 255°
2026-04-26 18:13 38.86037 1.70040 13874 ft 350 kts 255°
2026-04-26 18:13 38.85622 1.68038 13556 ft 349 kts 255°
2026-04-26 18:14 38.84796 1.64074 12971 ft 346 kts 255°
2026-04-26 18:14 38.84177 1.61104 12534 ft 343 kts 255°
2026-04-26 18:14 38.83562 1.58156 12099 ft 341 kts 254°
2026-04-26 18:14 38.82931 1.55229 11654 ft 339 kts 254°
2026-04-26 18:15 38.82290 1.52329 11227 ft 337 kts 253°
2026-04-26 18:15 38.81647 1.49449 10782 ft 335 kts 253°
2026-04-26 18:15 38.81013 1.46624 10352 ft 333 kts 253°
2026-04-26 18:15 38.80374 1.43813 10178 ft 322 kts 251°
2026-04-26 18:16 38.79465 1.41256 10049 ft 310 kts 241°
2026-04-26 18:16 38.77475 1.36464 9402 ft 301 kts 241°
2026-04-26 18:16 38.76504 1.34117 8856 ft 296 kts 241°
2026-04-26 18:17 38.75574 1.31862 8662 ft 276 kts 241°
2026-04-26 18:17 38.74696 1.29734 8291 ft 264 kts 240°
2026-04-26 18:17 38.73848 1.27679 7926 ft 257 kts 241°
2026-04-26 18:17 38.73021 1.25684 7347 ft 258 kts 241°
2026-04-26 18:18 38.72179 1.23662 6728 ft 258 kts 241°
2026-04-26 18:18 38.71332 1.21635 6104 ft 257 kts 240°
2026-04-26 18:18 38.70738 1.19497 5501 ft 256 kts 265°
2026-04-26 18:18 38.70986 1.17279 4983 ft 252 kts 294°
2026-04-26 18:19 38.71998 1.15496 4453 ft 246 kts 323°
2026-04-26 18:19 38.73495 1.14541 3933 ft 240 kts 350°
2026-04-26 18:19 38.75129 1.14529 3419 ft 234 kts 12°
2026-04-26 18:19 38.76707 1.14902 3050 ft 223 kts 18°
2026-04-26 18:20 38.78002 1.15761 2992 ft 201 kts 44°
2026-04-26 18:20 38.78881 1.17094 2999 ft 193 kts 64°
2026-04-26 18:20 38.79488 1.18547 3006 ft 177 kts 64°
2026-04-26 18:20 38.79868 1.19459 2859 ft 174 kts 63°
2026-04-26 18:21 38.80615 1.21251 2558 ft 167 kts 63°
2026-04-26 18:21 38.81156 1.22553 2350 ft 163 kts 64°
2026-04-26 18:21 38.81688 1.23830 2141 ft 161 kts 63°
2026-04-26 18:21 38.82208 1.25079 1925 ft 157 kts 63°
2026-04-26 18:22 38.82715 1.26299 1716 ft 152 kts 63°
2026-04-26 18:22 38.83194 1.27452 1527 ft 140 kts 64°
2026-04-26 18:22 38.83637 1.28517 1348 ft 134 kts 62°
2026-04-26 18:22 38.84077 1.29576 1171 ft 134 kts 63°
2026-04-26 18:23 38.84514 1.30628 980 ft 134 kts 64°
2026-04-26 18:23 38.84945 1.31671 798 ft 132 kts 64°
2026-04-26 18:23 38.85379 1.32725 627 ft 132 kts 63°
2026-04-26 18:23 38.85819 1.33786 434 ft 136 kts 62°
2026-04-26 18:24 38.86260 1.34839 243 ft 133 kts 63°
2026-04-26 18:24 38.86692 1.35882 53 ft 132 kts 63°
2026-04-26 18:24 38.87088 1.36842 10 ft 103 kts 62°
2026-04-26 18:24 38.87340 1.37451 10 ft 46 kts 62°
2026-04-26 18:25 38.87460 1.37726 9 ft 28 kts 54°
2026-04-26 18:25 38.87544 1.37825 11 ft 11 kts 34°
2026-04-26 18:25 38.87613 1.37882 10 ft 13 kts 32°
2026-04-26 18:25 38.87674 1.37915 9 ft 10 kts 353°
2026-04-26 18:26 38.87697 1.37855 9 ft 8 kts 249°
2026-04-26 18:26 38.87673 1.37799 9 ft 7 kts 242°
2026-04-26 18:26 38.87653 1.37748 10 ft 6 kts 241°
2026-04-26 18:26 38.87630 1.37696 9 ft 7 kts 241°
2026-04-26 18:27 38.87593 1.37612 9 ft 13 kts 240°
2026-04-26 18:27 38.87551 1.37511 9 ft 13 kts 242°
2026-04-26 18:27 38.87513 1.37416 9 ft 11 kts 242°
2026-04-26 18:27 38.87477 1.37329 9 ft 11 kts 242°
2026-04-26 18:28 38.87444 1.37250 9 ft 9 kts 242°
2026-04-26 18:28 38.87430 1.37194 9 ft 5 kts 291°
2026-04-26 18:28 38.87452 1.37182 9 ft 7 kts 335°
2026-04-26 18:28 38.87497 1.37152 8 ft 6 kts 332°
2026-04-26 18:29 38.87513 1.37142 8 ft 2 kts 332°
2026-04-26 18:29 38.87515 1.37140 8 ft 0 kts 332°